Theta_e
327 326 326 325 325 325 324 323 322 321 321 320 320 320 320 321 320 319 319 320 321 321 321 321 320 320 320 320 320 320 320 320 320 320 319 319 319 318 318 317 318 319
326 326 325 325 325 324 324 324 323 322 322 321 321 321 321 319 319 319 319 319 319 320 320 320 320 320 320 320 319 319 319 319 319 319 319 319 320 320 319 318 318 319
326 325 325 324 325 325 324 324 324 323 322 322 321 320 320 319 320 319 320 319 319 319 319 320 320 319 320 319 319 319 319 319 319 318 319 319 320 320 320 320 319 319
325 326 326 325 325 325 325 324 323 322 322 320 320 321 321 320 319 318 318 316 319 319 319 319 319 319 319 319 319 319 319 319 319 318 318 320 320 320 320 320 319 319
325 325 326 326 326 325 324 323 322 321 321 321 321 319 318 318 318 318 318 318 318 318 318 318 319 319 318 318 318 318 318 318 318 318 319 319 320 319 320 319 318 318
323 324 325 325 325 324 323 323 322 322 321 319 320 319 319 319 319 318 317 317 317 318 318 318 318 318 318 318 318 318 318 318 319 319 318 319 319 319 319 319 318 318
321 322 323 324 323 323 323 323 323 321 321 321 319 318 318 317 318 318 317 317 317 316 318 317 317 317 317 317 317 318 318 318 318 318 318 318 318 318 318 318 317 318
319 320 321 322 321 322 320 322 321 321 320 318 317 319 317 318 318 317 316 316 316 316 317 317 317 317 317 317 318 318 318 319 318 318 318 318 318 318 318 318 318 317
315 317 317 317 318 319 318 319 319 319 317 317 317 317 316 317 317 316 315 315 315 315 316 316 316 316 316 316 318 319 318 318 318 318 318 317 317 318 318 318 317 316
311 313 313 314 315 316 316 317 318 318 315 316 317 316 315 313 314 314 313 313 313 313 314 314 314 314 313 314 317 318 318 318 318 318 318 318 318 318 318 317 317 316
308 309 309 310 312 314 314 315 315 316 314 314 314 313 314 311 309 310 311 311 312 312 312 312 312 312 312 312 314 315 317 317 317 317 317 318 318 318 311 317 316 316
304 304 306 308 309 310 311 313 313 311 311 309 310 312 309 308 309 306 308 309 309 310 310 309 308 308 310 310 310 310 311 313 312 312 313 314 314 314 315 314 315 315
302 302 305 305 306 308 308 307 307 305 305 308 305 308 306 305 303 305 304 307 307 307 307 307 306 305 306 306 307 307 308 308 307 308 308 308 308 308 309 310 312 313
302 301 302 303 304 303 304 302 303 301 304 304 300 304 304 304 304 305 302 301 304 303 304 302 302 302 303 302 304 305 305 305 305 305 305 305 305 305 306 307 309 310
298 295 297 297 296 299 300 302 303 302 299 298 299 301 303 303 303 302 297 296 293 296 296 297 300 301 301 301 302 303 303 303 304 304 303 303 303 301 301 304 306 308
293 292 294 294 296 298 299 298 297 296 295 295 296 297 297 294 296 296 297 297 294 292 292 295 298 300 296 296 298 302 302 303 303 302 301 301 300 300 299 299 303 304
292 294 293 294 296 295 293 293 295 292 292 293 293 292 293 292 294 295 295 295 296 294 293 296 297 297 293 296 297 298 300 301 301 302 302 300 299 299 300 299 298 298
293 292 291 293 292 293 293 292 290 290 291 292 291 290 290 291 293 296 295 294 294 294 295 295 295 293 294 296 296 297 296 298 299 300 301 300 298 298 298 297 297 296
291 291 292 291 291 291 289 289 289 290 290 291 291 290 290 292 293 293 292 292 293 294 293 292 292 292 295 295 295 295 295 295 297 298 298 298 297 296 296 296 296 296
291 291 291 290 289 288 287 287 289 292 290 289 289 289 291 291 290 291 291 292 292 292 291 290 291 291 294 294 294 294 294 295 296 296 296 294 293 294 294 294 295 296
290 290 290 289 287 287 287 288 290 289 289 289 290 291 292 292 291 291 291 291 291 291 291 290 291 291 294 294 294 294 294 294 296 296 293 291 292 292 293 293 293 295
291 290 289 288 287 286 287 289 289 290 291 288 288 287 286 288 288 289 290 290 290 290 290 289 289 291 292 293 293 294 294 294 294 294 292 291 290 290 290 291 292 293
293 292 290 289 287 288 288 289 289 289 289 287 288 288 289 289 290 289 290 290 290 290 290 289 289 290 291 292 293 294 293 291 291 292 292 291 290 289 289 289 289 290
294 292 292 290 288 289 290 290 289 287 288 287 290 289 289 290 290 289 289 290 290 289 290 289 289 288 290 291 292 293 291 291 291 291 290 289 288 287 287 287 287 286
293 292 292 291 291 291 291 290 290 290 289 287 288 289 288 289 289 289 288 289 289 290 288 289 289 288 289 291 291 292 290 290 291 291 290 288 287 286 287 287 287 286
292 292 292 292 292 292 290 290 288 287 288 287 287 287 287 287 288 289 288 288 289 289 289 289 288 287 288 290 290 291 291 289 290 291 290 288 287 287 285 286 286 286
Wind_Speed
14 12 13 12 12 11 10 9 8 9 10 9 10 10 11 11 8 9 10 10 10 10 10 10 9 9 9 9 9 9 9 10 9 8 9 9 10 10 10 10 10 9
16 15 13 11 10 9 10 10 11 11 12 11 10 9 8 7 8 9 10 10 10 10 10 9 9 10 9 9 9 9 8 9 10 8 9 11 10 10 11 11 10 9
14 13 14 14 14 15 15 13 11 11 10 10 8 7 8 8 9 9 9 10 10 10 10 9 9 9 9 9 9 9 9 9 10 9 9 11 10 10 10 10 9 10
15 15 15 15 15 14 13 11 10 9 8 8 9 10 9 7 7 8 8 9 9 9 9 9 10 9 9 9 9 9 10 10 10 8 9 8 9 9 10 8 9 8
14 14 14 14 13 13 10 10 11 10 10 11 8 7 7 8 9 9 9 9 9 9 8 10 9 9 9 9 9 9 9 9 8 8 9 9 9 9 9 8 9 10
12 12 13 12 12 11 11 11 11 10 10 8 11 9 9 9 8 9 9 9 9 9 9 8 9 9 9 9 9 9 9 9 9 9 10 10 9 9 8 8 9 10
13 12 14 13 12 11 12 12 11 10 10 10 7 9 9 9 10 10 10 10 10 9 10 9 9 9 9 9 9 9 9 10 9 10 10 9 9 9 9 9 10 10
13 12 12 11 11 12 12 12 11 11 11 8 9 10 9 11 11 10 9 9 9 9 9 9 9 9 9 9 9 10 10 9 9 10 10 10 9 10 9 9 9 9
12 11 10 10 12 11 12 12 11 10 9 10 11 10 10 11 10 10 10 9 9 9 9 9 9 9 9 9 10 11 11 10 10 10 10 10 10 11 10 8 8 9
11 11 11 10 12 12 13 13 12 11 9 11 12 10 10 9 9 9 8 9 9 9 9 10 10 9 8 9 11 11 11 11 10 10 10 10 11 10 9 9 9 9
9 9 9 11 12 11 12 13 12 11 9 11 9 9 9 7 7 7 8 9 10 10 10 10 10 9 9 9 9 9 10 10 10 10 10 10 10 10 9 9 9 10
8 7 9 11 11 10 11 11 9 7 7 6 7 9 7 7 8 7 9 10 10 10 9 9 8 9 10 10 10 9 9 9 8 9 9 9 9 8 8 8 8 9
8 9 10 10 10 11 10 8 8 7 7 8 8 7 7 8 7 9 8 9 10 8 9 9 9 8 9 8 8 8 9 8 7 7 7 7 6 7 6 6 7 7
8 7 7 9 8 7 8 8 7 6 8 7 6 8 9 9 10 11 9 8 8 9 9 7 8 8 8 8 8 9 8 8 7 7 7 6 5 5 6 6 6 6
4 3 5 7 6 7 7 8 8 7 6 6 7 8 8 9 8 8 7 7 5 6 7 7 8 9 9 9 8 7 7 8 7 7 7 7 6 5 5 5 6 6
5 5 5 6 7 9 9 7 6 6 6 6 8 8 7 6 6 6 8 9 9 7 6 7 7 6 9 12 11 9 9 7 7 6 7 6 6 6 6 6 6 5
6 6 5 7 9 8 6 5 6 5 6 6 6 6 7 7 7 9 9 9 10 10 9 8 7 6 11 12 11 11 8 7 8 7 7 7 7 8 8 7 5 5
6 6 6 8 6 8 7 6 5 5 6 6 5 6 6 5 8 9 9 8 7 7 8 8 7 8 12 12 11 11 8 7 6 6 7 7 7 7 6 5 5 5
6 6 8 8 7 6 4 4 5 5 5 6 7 5 4 6 7 6 7 6 7 9 8 6 5 9 12 12 12 11 10 8 5 5 5 5 5 5 4 4 4 4
6 7 8 7 5 3 3 4 5 7 6 5 5 6 7 6 5 6 5 6 6 6 6 5 5 8 11 12 11 11 10 7 5 5 4 3 3 3 3 4 5 5
5 6 7 5 3 3 3 4 6 5 6 7 8 9 9 9 9 7 6 6 5 5 5 5 4 8 10 11 11 10 10 7 4 3 3 3 3 4 5 5 5 5
6 6 6 4 4 4 4 6 7 8 9 7 6 5 4 4 3 4 6 6 5 5 5 5 5 9 10 10 10 10 10 5 5 5 4 3 3 4 4 3 3 4
9 8 7 5 5 5 7 8 8 9 7 5 7 7 8 8 8 7 7 7 7 7 7 6 6 9 11 11 11 11 8 5 4 4 4 4 4 3 4 3 4 4
10 9 9 7 6 8 10 9 7 4 5 6 9 10 9 10 8 7 6 7 8 8 8 8 6 8 11 11 12 12 8 6 5 5 4 5 4 3 3 3 3 6
9 9 10 9 8 10 9 8 9 9 5 4 7 7 6 6 6 7 6 6 6 7 8 8 7 8 11 11 12 12 8 6 6 6 6 5 6 5 3 4 4 4
8 9 10 10 11 10 7 8 5 4 6 9 6 6 7 6 7 7 8 6 6 7 7 7 8 7 9 12 12 12 10 7 6 7 8 7 6 7 6 3 3 4
Wind_Direction
216 214 220 220 222 221 219 212 207 211 214 211 212 214 209 217 199 192 199 202 205 206 206 208 205 206 207 202 199 200 204 208 210 205 204 203 214 214 215 212 211 213
214 214 215 218 222 219 221 214 211 210 216 212 214 216 215 204 204 193 197 203 203 207 204 205 203 204 203 201 197 200 205 206 213 201 205 205 214 213 220 218 215 214
215 214 215 214 217 216 216 215 213 213 216 217 211 211 213 203 207 200 199 199 202 205 204 202 203 203 203 200 196 199 204 207 214 203 203 207 210 213 219 217 218 212
215 214 214 217 218 220 217 213 215 215 215 212 207 207 208 206 201 202 202 202 203 203 203 200 204 203 202 199 194 201 206 211 212 201 205 209 211 213 217 214 215 214
218 217 218 219 221 221 216 213 215 211 211 216 213 203 202 202 202 205 203 203 204 205 199 202 201 204 199 199 195 202 204 211 208 201 205 209 211 208 215 210 213 217
218 218 219 221 220 217 215 216 216 211 213 210 212 204 206 205 208 208 202 202 204 204 201 199 200 203 198 199 194 203 202 208 207 201 206 209 212 208 209 209 213 218
219 214 216 216 217 214 216 219 219 214 213 210 201 208 203 204 211 210 204 205 201 201 201 199 200 202 198 196 197 201 204 207 205 202 206 211 210 212 207 210 213 217
226 221 217 213 213 215 217 219 216 215 213 198 203 211 198 210 212 209 207 203 200 201 202 205 203 202 197 193 197 201 206 205 206 204 206 210 208 215 210 210 210 215
225 223 216 211 212 215 217 218 218 217 205 202 210 210 204 209 207 204 203 199 200 202 202 206 205 203 196 193 197 200 203 204 204 204 204 206 209 214 214 205 204 211
224 224 217 212 213 214 215 217 215 216 205 208 212 208 206 207 199 200 193 192 199 201 203 206 206 203 196 195 198 198 202 203 202 204 206 207 210 212 212 203 205 210
237 228 221 218 217 216 217 218 215 215 206 209 209 209 211 191 197 191 189 193 199 201 204 206 205 198 195 197 200 200 202 202 202 203 205 207 208 211 208 205 205 211
238 234 230 226 221 220 221 221 216 213 206 210 204 213 203 193 191 189 192 197 201 203 201 202 198 196 197 198 198 197 199 201 199 198 202 205 207 208 207 204 206 211
232 227 227 229 225 222 221 216 212 207 195 205 199 201 195 194 192 191 200 197 202 195 197 195 193 193 195 194 192 191 192 191 192 192 194 198 203 201 201 199 203 205
237 237 241 238 236 233 224 218 211 199 203 200 176 194 197 194 194 198 198 195 196 192 194 183 180 184 187 186 184 183 181 187 185 185 185 192 193 195 192 197 201 205
268 276 271 272 261 243 229 220 211 207 200 188 191 201 201 201 195 187 174 187 184 181 172 175 178 184 182 176 172 170 164 153 167 178 182 188 195 199 204 204 209 208
256 244 232 236 240 236 233 225 216 208 193 193 201 202 196 186 177 177 177 177 173 173 173 173 181 181 181 177 175 171 171 175 176 185 185 189 190 197 206 206 201 197
266 253 237 235 233 238 239 228 220 202 197 202 197 188 184 180 174 174 183 179 175 171 174 183 182 181 173 174 174 169 166 173 179 184 187 189 192 195 203 203 205 203
255 253 239 239 234 233 226 216 200 191 200 197 185 186 191 176 181 185 178 175 170 171 178 181 181 165 167 169 168 167 166 170 177 183 187 190 191 194 196 191 197 199
254 242 239 237 231 235 227 195 188 193 194 185 194 185 161 183 189 168 176 173 170 175 183 174 171 164 168 165 165 164 167 166 173 177 182 188 181 186 186 192 192 198
239 236 239 237 219 206 197 209 199 204 193 176 153 157 179 182 178 180 167 173 177 174 169 164 168 176 169 164 162 163 167 163 161 163 167 163 178 181 191 195 196 197
239 235 246 243 204 176 186 222 221 207 187 182 177 180 181 185 180 178 179 171 168 162 163 170 169 172 170 163 160 161 164 159 146 145 149 171 182 193 194 190 182 180
285 261 246 225 199 186 194 218 224 211 198 187 175 177 162 136 144 156 168 172 168 162 162 170 166 173 166 161 159 163 160 152 158 165 164 168 172 175 179 177 170 180
298 285 268 234 205 198 210 215 216 224 212 178 174 181 177 182 185 181 176 171 171 174 174 169 165 178 167 165 165 165 156 154 159 157 172 177 176 164 158 154 161 168
284 274 267 248 219 220 219 218 211 236 227 197 187 181 190 195 176 168 174 176 174 178 178 168 166 173 169 167 167 166 157 159 163 166 173 164 150 141 132 140 139 155
272 265 261 257 241 238 229 218 208 206 207 217 221 193 187 161 167 170 167 171 176 170 163 164 161 169 172 167 168 166 160 159 164 168 166 169 157 137 129 135 137 131
266 257 253 248 246 250 239 231 210 181 186 192 216 201 176 168 169 171 170 174 165 165 172 169 160 167 175 172 170 168 162 160 169 172 181 169 163 155 147 147 138 130